Location: ??????????
(54.7560°N, 39.1389°E)
Time: 10:45:33
(UTC+00:00)

Okean-O - Pass Details

Date: 19 May 2025
Orbit: 628 x 631 km, 98.0° (Epoch: 14 June)

Event Time Altitude Azimuth Distance (km) Brightness Sun altitude
Rises 18:26:18 0° 182° (S) 2,915 5.6 -6.6°
Reaches altitude 10° 18:28:35 10° 189° (S) 2,011 4.8 -6.8°
Maximum altitude 18:32:46 43° 262° (W) 896 3.7 -7.2°
Drops below altitude 10° 18:36:58 10° 334° (NNW) 2,026 6.8 -7.6°
Sets 18:39:17 0° 341° (NNW) 2,938 7.6 -7.8°
